442  
NZUS93 KARX 172010  
HRRWXR  
 
CURRENT HOURLY OBSERVATIONS ACROSS  
MUCH OF THE UPPER MISSISSIPPI VALLEY  
NATIONAL WEATHER SERVICE LA CROSSE WI  
300 PM CDT WED OCT 17 2018  
 
   
..SOUTHEAST MINNESOTA
 
 
 
CITY SKY/WX TMP DP RH WIND PRES REMARKS  
ROCHESTER FAIR 49 26 41 NW12G24 30.39F  
ROCHESTER/MAYO FAIR 47 23 38 NW18G26 30.39S  
WINONA FAIR 50 27 40 W12G22 30.38F  
AUSTIN FAIR 48 25 40 NW13G18 30.40F  
ALBERT LEA FAIR 48 25 40 NW9 30.41F  
DODGE CENTER FAIR 46 23 39 W12G20 30.40S  
PRESTON FAIR 47 24 40 NW17G24 30.39F  
OWATONNA FAIR 48 27 43 NW12G22 30.41F  
FARIBAULT NOT AVBL  

 
   
..ELSEWHERE IN MINNESOTA
 
 
 
CITY SKY/WX TMP DP RH WIND PRES REMARKS  
MINNEAPOLIS FAIR 49 25 39 N10G21 30.41S  
INTNL FALLS FAIR 36 12 37 W12 30.37S WCI 28  
DULUTH FAIR 41 13 31 NW17G23 30.33R  
RED WING FAIR 48 19 32 W16 30.38F  
REDWOOD FALLS SUNNY 50 25 37 N10 30.43F  
MANKATO FAIR 49 25 39 W14 30.43F  
WORTHINGTON SUNNY 49 26 41 NW9 30.44F  
FAIRMONT SUNNY 47 23 38 VRB6 30.44F  

 
   
..SOUTHWEST WISCONSIN
 
 
 
CITY SKY/WX TMP DP RH WIND PRES REMARKS  
LA CROSSE FAIR 52 24 33 NW15 30.36F  
PRAIRIE DU CHI FAIR 51 21 30 W9G25 30.38S  
BOSCOBEL FAIR 51 25 36 W7G18 30.38S  
LONE ROCK FAIR 50 24 36 W14G26 30.35S  
PLATTEVILLE FAIR 50 29 43 W12G21 30.37S  
FORT MC COY FAIR 49 25 39 W17 30.35S  
CAMP DOUGLAS MOSUNNY 50 23 34 NW16G30 30.32S  
MAUSTON-NEW LI FAIR 50 25 37 W14G22 30.32S  
VIROQUA FAIR 48 26 41 NW15G21 30.36R  
WIS DELLS FAIR 49 18 29 NW16G23 30.32S  

 
   
..ELSEWHERE IN WISCONSIN
 
 
 
CITY SKY/WX TMP DP RH WIND PRES REMARKS  
MILWAUKEE FAIR 49 21 33 W15G26 30.31S  
MADISON FAIR 49 23 36 NW8G21 30.32F  
GREEN BAY FAIR 47 25 42 NW15G28 30.28R  
EAU CLAIRE FAIR 48 19 31 NW18G24 30.34S  
BLACK RVR FLS FAIR 51 19 28 NW12G23 30.34S  
MEDFORD FAIR 42 19 39 NW12G25 30.29R  
WAUSAU FAIR 44 17 33 NW17G28 30.27R  
WIS RAPIDS FAIR 49 17 28 NW17G28 30.30R  
MARSHFIELD FAIR 46 19 34 NW20G30 30.29R  
RICE LAKE FAIR 46 13 26 NW12G18 30.37R  

 
   
..NORTHEAST IOWA
 
 
 
CITY SKY/WX TMP DP RH WIND PRES REMARKS  
WATERLOO FAIR 50 28 42 N10 30.42S  
DUBUQUE FAIR 50 26 39 W15 30.38S  
DECORAH FAIR 50 25 37 VRB5G23 30.38S  
MASON CITY SUNNY 50 26 39 NW9 30.44F  
CHARLES CITY FAIR 50 27 40 NW13 30.42S  
OELWEIN FAIR 50 25 37 NW10G22 30.41S  

 
   
..ELSEWHERE IN IOWA
 
 
 
CITY SKY/WX TMP DP RH WIND PRES REMARKS  
DES MOINES SUNNY 56 31 38 N14G20 30.44F  
IOWA CITY FAIR 53 30 41 NW10G21 30.43S  
FORT DODGE SUNNY 51 28 41 VRB3 30.45F  
MARSHALLTOWN SUNNY 51 31 46 NW12 30.43S  
CEDAR RAPIDS FAIR 51 29 42 NW10G20 30.41S  

 
   
..NORTHERN ILLINOIS
 
 
 
CITY SKY/WX TMP DP RH WIND PRES REMARKS  
CHICAGO-OHARE FAIR 50 26 39 W13 30.32R  
CHICAGO-MIDWAY FAIR 51 28 41 W13 30.33R  
MOLINE FAIR 54 31 41 NW14G22 30.39S  
ROCKFORD FAIR 50 24 36 NW13G24 30.37S  
PEORIA FAIR 54 32 43 NW10G18 30.39S  

 
 
NOTE: "FAIR" INDICATES FEW OR NO CLOUDS BELOW 12,000 FEET WITH NO  
SIGNIFICANT WEATHER AND/OR OBSTRUCTIONS TO VISIBILITY. WIND  
SPEEDS ARE IN MILES-PER-HOUR.  
 
 
CLICK HERE TO GO TO PREVIOUS BULLETINS.

The Nexlab WI Page
The Nexlab IA Page
The Nexlab MN Page Main Text Page